Nur fliegen ist schöner ....

Willkommen beim Flugservice Bautzen GmbH

Wir sind eine nach europäischen Richtlinien zugelassene Flugschule und lizenziertes Luftfahrtunternehmen. Bei uns können sie nicht nur Rundflüge über die Oberlausitz oder Sachsen buchen, sondern in unserer Flugschule selber das Fliegen erlernen. Erfahrene Fluglehrer stehen ihnen dabei zur Seite.

Wir bieten außerdem Businessflüghe sowie Transportleistungen auf dem Luftweg, ganz nach ihren Wünschen, an. Schauen sie sich in Ruhe bei uns um und wenn sie Fragen haben oder weitere Informationen benötigen, scheuen sie sich nicht Kontakt mit uns aufzunehmen.

Rundflüge können sie ganz leicht auch online in unserem Shop buchen.

Terminkalender

Letzter Monat Juni 2017 Nächster Monat
Mo Di Mi Do Fr Sa So
week 22 1 2 3 4
week 23 5 6 7 8 9 10 11
week 24 12 13 14 15 16 17 18
week 25 19 20 21 22 23 24 25
week 26 26 27 28 29 30

Flugwetterinfo

[Quelle: ADDS]
METAR
EDDC 291350Z 25012KT 220V290 9999 RA BKN010 OVC028 17/15 Q0995 TEMPO 25015G25KT 4000 -SHRA =
TAF
EDDC 291100Z 2912/3012 28012KT 9000 SCT005 BKN015 TEMPO 2912/2919 26015G25KT 3500 RA BR BKN004 BECMG 3004/3007 25015G25KT =
SR / SS: 02:49 / 19:21 UTC (EDAB Flugplatz Bautzen 2017-06-29)

Webcam EDAB

Webcam EDAB
Flugservice Bautzen GmbH, Kornmarkt 34, 02625 Bautzen  Telefon: +49 (3591) 211105, Telefax: +49 (3591) 274512, E-Mail:  flugservice(at)fsbautzen.de